Tracking 30743 objects as of 22-Jun-2025
HD Live streaming from Space Station
objects crossing your sky now

YZ-1 R/B

Track YZ-1 R/B now!


NORAD ID: 43210
Int'l Code: 2018-018D
Perigee: 22,168.7 km
Apogee: 22,383.0 km
Inclination: 56.1 °
Period: 804.2 minutes
Semi major axis: 28646 km
RCS: Unknown
Launch date: February 12, 2018
Source: People's Republic of China (PRC)
Launch site: Xichang Space Center, China (XSC)

Note: This is a ROCKET BODY
Your satellite tracking list
Your tracking list is empty




NASA's NSSDC Master Catalog

Two Line Element Set (TLE):
1 43210U 18018D   25172.05027093 -.00000041  00000-0  00000-0 0  9997
2 43210  56.1083  82.0616 0037415  99.4096 261.0184  1.79055336 48097
Source of the keplerian elements: AFSPC